Location: Maccacari
(45.1333°N, 11.1333°E)
Time: 11:24:42
(UTC+00:00)

Vanguard 2 - Pass Details

Date: 22 January 2021
Orbit: 552 x 2938 km, 32.9° (Epoch: 24 February)

Event Time Altitude Azimuth Distance (km) Brightness Sun altitude
Rises 16:07:58 0° 218° (SW) 2,710 11.8 -0.7°
Reaches altitude 10° 16:11:08 10° 188° (S) 1,897 10.1 -1.2°
Maximum altitude 16:13:09 13° 159° (SSE) 1,792 9.5 -1.5°
Drops below altitude 10° 16:15:24 10° 130° (SE) 2,147 9.6 -1.8°
Sets 16:19:28 0° 105° (ESE) 3,431 10.4 -2.5°
